Weather History for KFWA - March, 2014

Change the Weather History Date:

Friday, March 28, 2014

  Actual Average Record
Temperature  
Mean Temperature 43 °F 43 °F  
Max Temperature 51 °F 53 °F 84 °F (1910)
Min Temperature 35 °F 33 °F 10 °F (1955)
Degree Days  
Heating Degree Days 22 22  
Month to date heating degree days 994 763  
Since 1 July heating degree days 6247 5361  
Cooling Degree Days 0 0  
Month to date cooling degree days 0 0  
Year to date cooling degree days 0 0  
Moisture  
Dew Point 38 °F    
Average Humidity 76    
Maximum Humidity 86    
Minimum Humidity 66    
Precipitation  
Precipitation 0.05 in 0.11 in 2.12 in (1907)
Month to date precipitation 1.64 2.39  
Year to date precipitation 7.72 6.69  
Snow  
Snow 0.00 in 0.10 in 0.50 in (1964)
Month to date snowfall 12.2 3.9  
Since 1 July snowfall 72.6 32.3  
Snow Depth 0.00 in    
Sea Level Pressure  
Sea Level Pressure 29.88 in    
Wind  
Wind Speed 18 mph (West)    
Max Wind Speed 32 mph    
Max Gust Speed 42 mph    
Visibility 8 miles    
Events Rain    
T = Trace of Precipitation, MM = Missing Value Source: NWS Daily Summary

Daily Weather History Graph

Daily Weather History Graph

Search for Another Location

Airport or City:

Trip Planner

Search our weather history database for the weather conditions in past years. The results will help you decide how hot, cold, wet, or windy it might be!

Date:

Astronomy

Mar. 28, 2014 Rise Set
Actual Time 7:30 AM EDT 8:01 PM EDT
Civil Twilight 7:03 AM EDT 8:29 PM EDT
Nautical Twilight 6:30 AM EDT 9:01 PM EDT
Astronomical Twilight 5:57 AM EDT 9:35 PM EDT
Moon 6:02 AM EDT (3/28) 5:56 PM EDT (3/28)
Length of Visible Light 13h 25m
Length of Day
12h 30m
Waning Crescent, 6% of the Moon is Illuminated
Mar 28
Waning Crescent
Mar 30
New
Apr 7
First Quarter
Apr 15
Full
Apr 22
Last Quarter

Hourly Weather History & Observations

Time (EDT) Temp. Windchill Dew Point Humidity Pressure Visibility Wind Dir Wind Speed Gust Speed Precip Events Conditions
12:54 AM 48.0 °F - 37.9 °F 68% 29.69 in 10.0 mi SSW 20.7 mph 28.8 mph N/A   Overcast
1:54 AM 48.9 °F - 39.9 °F 71% 29.69 in 4.0 mi SW 19.6 mph - 0.00 in Rain Light Rain
2:54 AM 48.9 °F - 43.0 °F 80% 29.65 in 10.0 mi SSW 26.5 mph 35.7 mph 0.03 in   Overcast
3:54 AM 48.9 °F - 44.1 °F 83% 29.63 in 10.0 mi SSW 24.2 mph 33.4 mph N/A   Overcast
4:54 AM 48.9 °F - 44.1 °F 83% 29.63 in 10.0 mi SSW 24.2 mph 33.4 mph N/A   Overcast
5:14 AM 48.9 °F - 44.1 °F 83% 29.61 in 10.0 mi SSW 25.3 mph 33.4 mph N/A   Overcast
5:38 AM 50.0 °F - 44.1 °F 80% 29.61 in 10.0 mi SSW 24.2 mph 34.5 mph N/A   Overcast
5:54 AM 50.0 °F - 44.1 °F 80% 29.62 in 10.0 mi SSW 23.0 mph 33.4 mph N/A   Overcast
6:27 AM 50.0 °F - 45.0 °F 83% 29.62 in 10.0 mi SSW 24.2 mph - 0.00 in   Overcast
6:54 AM 50.0 °F - 45.0 °F 83% 29.64 in 10.0 mi SW 25.3 mph 33.4 mph 0.00 in   Overcast
7:27 AM 50.0 °F - 45.0 °F 83% 29.65 in 10.0 mi SW 25.3 mph 33.4 mph N/A   Overcast
7:54 AM 48.9 °F - 43.0 °F 80% 29.68 in 8.0 mi WSW 32.2 mph 39.1 mph 0.00 in Rain Light Rain
8:07 AM 46.9 °F - 42.1 °F 83% 29.68 in 10.0 mi WSW 24.2 mph 36.8 mph 0.00 in   Overcast
8:24 AM 45.0 °F 36.9 °F 39.9 °F 82% 29.70 in 10.0 mi WSW 20.7 mph 34.5 mph 0.00 in   Overcast
8:37 AM 44.1 °F 35.2 °F 39.9 °F 85% 29.71 in 10.0 mi WSW 23.0 mph 36.8 mph 0.00 in   Overcast
8:54 AM 44.1 °F 34.8 °F 39.0 °F 82% 29.73 in 10.0 mi WSW 25.3 mph 34.5 mph 0.00 in   Overcast
9:54 AM 42.1 °F 32.3 °F 37.9 °F 85% 29.80 in 6.0 mi WSW 24.2 mph 32.2 mph 0.00 in Rain Light Rain
10:28 AM 41.0 °F 32.5 °F 37.9 °F 89% 29.82 in 2.5 mi WSW 17.3 mph 32.2 mph 0.01 in   Light Drizzle
10:33 AM 41.0 °F 31.9 °F 37.9 °F 89% 29.82 in 1.8 mi WSW 19.6 mph 27.6 mph 0.01 in   Light Drizzle
10:43 AM 41.0 °F 31.6 °F 37.9 °F 89% 29.83 in 3.0 mi WSW 20.7 mph 27.6 mph 0.01 in Rain Light Rain
10:54 AM 41.0 °F 31.9 °F 39.0 °F 93% 29.86 in 2.5 mi WSW 19.6 mph 26.5 mph 0.01 in   Light Drizzle
11:00 AM 41.0 °F 32.2 °F 39.0 °F 93% 29.85 in 1.5 mi WSW 18.4 mph - 0.01 in   Light Drizzle
11:11 AM 41.0 °F 33.1 °F 39.0 °F 93% 29.85 in 6.0 mi WSW 15.0 mph - 0.01 in Rain Light Rain
11:54 AM 41.0 °F 32.8 °F 39.0 °F 93% 29.90 in 10.0 mi West 16.1 mph - 0.01 in   Overcast
12:16 PM 41.0 °F 33.1 °F 36.0 °F 82% 29.92 in 10.0 mi WNW 15.0 mph 23.0 mph N/A   Overcast
12:54 PM 39.9 °F 31.4 °F 35.1 °F 83% 29.98 in 10.0 mi WNW 16.1 mph - N/A   Overcast
1:09 PM 39.9 °F 33.4 °F 35.1 °F 83% 29.98 in 10.0 mi West 10.4 mph 20.7 mph N/A   Overcast
1:54 PM 41.0 °F 32.5 °F 35.1 °F 79% 30.02 in 10.0 mi WNW 17.3 mph - N/A   Mostly Cloudy
2:28 PM 42.1 °F 33.1 °F 36.0 °F 79% 30.01 in 10.0 mi WNW 20.7 mph - N/A   Mostly Cloudy
2:54 PM 42.1 °F 33.3 °F 35.1 °F 76% 30.02 in 10.0 mi WNW 19.6 mph 28.8 mph N/A   Scattered Clouds
3:33 PM 43.0 °F 35.4 °F 35.1 °F 74% 30.03 in 10.0 mi WNW 16.1 mph 23.0 mph N/A   Mostly Cloudy
3:54 PM 42.1 °F 34.9 °F 34.0 °F 73% 30.06 in 10.0 mi WNW 13.8 mph - N/A   Mostly Cloudy
4:54 PM 41.0 °F 33.5 °F 33.1 °F 73% 30.09 in 10.0 mi West 13.8 mph - N/A   Mostly Cloudy
5:54 PM 41.0 °F 34.7 °F 33.1 °F 73% 30.11 in 10.0 mi WNW 10.4 mph - N/A   Mostly Cloudy
6:54 PM 39.0 °F 31.0 °F 32.0 °F 76% 30.12 in 10.0 mi NNW 13.8 mph - N/A   Mostly Cloudy
7:54 PM 37.0 °F 27.4 °F 30.0 °F 76% 30.13 in 10.0 mi North 17.3 mph - N/A   Mostly Cloudy
8:54 PM 36.0 °F 27.1 °F 30.0 °F 79% 30.17 in 10.0 mi North 13.8 mph - N/A   Overcast
9:54 PM 36.0 °F 30.3 °F 30.0 °F 79% 30.19 in 10.0 mi NNE 6.9 mph - N/A   Overcast
10:18 PM 35.1 °F 26.9 °F 28.9 °F 78% 30.17 in 10.0 mi NNE 11.5 mph - N/A   Overcast
10:54 PM 35.1 °F 28.6 °F 30.0 °F 82% 30.19 in 10.0 mi NE 8.1 mph - N/A   Overcast
11:54 PM 35.1 °F 27.9 °F 30.0 °F 82% 30.19 in 10.0 mi East 9.2 mph - N/A   Overcast